Tracking 20472 objects as of 28-Feb-2020
HD Live streaming from Space Station
objects crossing your sky now

FLOCK 4A 20

Track FLOCK 4A 20 now!
10-day predictions
FLOCK 4A 20 is classified as:


NORAD ID: 44091
Int'l Code: 2019-018P
Perigee: 495.9 km
Apogee: 514.3 km
Inclination: 97.4 °
Period: 94.6 minutes
Semi major axis: 6876 km
RCS: Unknown
Launch date: April 1, 2019
Source: United States (US)
Launch site: SRIHARIKOTA (SRI)
aabbcc
Your satellite tracking list
Your tracking list is empty




NASA's NSSDC Master Catalog

Two Line Element Set (TLE):
1 44091U 19018P   20058.79991459  .00001685  00000-0  75377-4 0  9998
2 44091  97.4241 121.1001 0013322 195.2471 164.8366 15.22612141 50568
Source of the keplerian elements: AFSPC